This demonstration page uses our WeatherBlox Daily Observations layout. Learn more.

Left ArrowRight Arrow

34.02893, -84.19858

Hourly Observations for June 27, 2020

Temp ( °F °C ) Dew Point ( °F °C ) Humidity (%) Winds ( mph kmh ) Pressure ( in mb ) Visibility ( mi km ) Precip ( " mm )
12:53 am 00:53 Clear 69 20.6 61 16.1 76 76 SW 5 7 30.12 1020 9 14 0.00 0.00
1:53 am 01:53 Clear 67 19.4 62 16.7 84 84 Calm 30.10 1019 9 14 0.00 0.00
2:53 am 02:53 Clear 70 21.1 62 16.7 76 76 W 6 9 30.09 1019 8 13 0.00 0.00
3:53 am 03:53 Clear 68 20 62 16.7 81 81 WNW 6 9 30.10 1019 8 13 0.00 0.00
4:53 am 04:53 Clear 68 20 63 17.2 84 84 W 5 7 30.10 1019 8 13 0.00 0.00
5:53 am 05:53 Clear 68 20 63 17.2 84 84 Calm 30.11 1020 8 13 0.00 0.00
6:53 am 06:53 Sunny 68 20 63 17.2 84 84 W 5 7 30.13 1020 7 11 0.00 0.00
7:53 am 07:53 Mostly Cloudy 69 20.6 63 17.2 81 81 W 3 6 30.14 1021 7 11 0.00 0.00
8:53 am 08:53 Sunny 72 22.2 64 17.8 76 76 Calm 30.13 1020 7 11 0.00 0.00
9:53 am 09:53 Sunny 72 22.2 65 18.3 79 79 WSW 3 6 30.13 1020 7 11 0.00 0.00
10:53 am 10:53 Sunny 77 25 65 18.3 66 66 WSW 3 6 30.12 1020 7 11 0.00 0.00
11:53 am 11:53 Sunny 79 26.1 67 19.4 67 67 SSW 3 6 30.09 1019 7 11 0.00 0.00
12:53 pm 12:53 Sunny 80 26.7 69 20.6 69 69 W 7 11 30.09 1019 7 11 0.00 0.00
1:53 pm 13:53 Mostly Sunny 82 27.8 70 21.1 67 67 W 8 13 30.07 1018 9 14 0.00 0.00
2:53 pm 14:53 Mostly Sunny 84 28.9 70 21.1 63 63 W 12 19 30.04 1017 10 16 0.00 0.00
3:53 pm 15:53 Mostly Sunny 86 30 69 20.6 57 57 W 13 20 30.01 1016 10 16 0.00 0.00
4:27 pm 16:27 Partly Cloudy with Nearby Thunderstorms 84 28.9 69 20.6 61 61 NW 28 44 30.03 1017 10 16 0.00 0.00
4:45 pm 16:45 Mostly Cloudy with Thunderstorms 70 21.1 65 18.3 84 84 NW 17 28 30.06 1018 10 16 0.00 0.00
4:53 pm 16:53 Windy with Storms Likely 68 20 65 18.3 90 90 WNW 21 33 30.09 1019 6 10 0.00 0.00
4:58 pm 16:58 Cloudy with Nearby Thunderstorms 68 20 66 18.9 93 93 WNW 16 26 30.09 1019 3 4 0.04 1.02
5:09 pm 17:09 Cloudy with Nearby Thunderstorms 68 20 66 18.9 93 93 W 10 17 30.10 1019 2 3 0.09 2.29
5:18 pm 17:18 Cloudy with Nearby Thunderstorms 68 20 66 18.9 93 93 WNW 7 11 30.09 1019 3 5 0.11 2.79
5:53 pm 17:53 Mostly Cloudy with Light Rain 68 20 66 18.9 93 93 N 3 6 30.05 1018 8 13 0.13 3.30
6:53 pm 18:53 Mostly Cloudy with Light Rain 69 20.6 67 19.4 93 93 Calm 30.03 1017 10 16 0.02 0.51
7:53 pm 19:53 Partly Cloudy 70 21.1 68 20 93 93 SW 3 6 30.02 1017 10 16 0.00 0.00
8:53 pm 20:53 Mostly Cloudy 69 20.6 69 20.6 100 100 Calm 30.01 1016 10 16 0.00 0.00
9:53 pm 21:53 Clear 70 21.1 69 20.6 97 97 Calm 30.00 1016 10 16 0.00 0.00
10:53 pm 22:53 Clear 70 21.1 69 20.6 97 97 Calm 30.00 1016 10 16 0.00 0.00
11:53 pm 23:53 Clear 70 21.1 69 20.6 97 97 Calm 30.01 1016 10 16 0.00 0.00

Powered by AerisWeather